www.pogodaiklimat.ru
Время
(UTC), дата
01 28.05
02 28.05
03 28.05
05 28.05
04 28.05
06 28.05
07 28.05
08 28.05
09 28.05
11 28.05
10 28.05
12 28.05
13 28.05
14 28.05
15 28.05
17 28.05
16 28.05
18 28.05
19 28.05
20 28.05
21 28.05
23 28.05
22 28.05
00 29.05
01 29.05
02 29.05
03 29.05
05 29.05
04 29.05
06 29.05
07 29.05
08 29.05
09 29.05
11 29.05
10 29.05
12 29.05
13 29.05
14 29.05
15 29.05
17 29.05
16 29.05
18 29.05
19 29.05
20 29.05
21 29.05
23 29.05
22 29.05
00 30.05
01 30.05
02 30.05
03 30.05
05 30.05
04 30.05
06 30.05
07 30.05
08 30.05
09 30.05
11 30.05
10 30.05
12 30.05
13 30.05
14 30.05
15 30.05
17 30.05
16 30.05
18 30.05
19 30.05
20 30.05
21 30.05
23 30.05
22 30.05
00 31.05
01 31.05
02 31.05
03 31.05
05 31.05
04 31.05
06 31.05
07 31.05
08 31.05
09 31.05
11 31.05
10 31.05
12 31.05
13 31.05
14 31.05
15 31.05
17 31.05
16 31.05
18 31.05
19 31.05
20 31.05
21 31.05
23 31.05
22 31.05
00 1.06
01 1.06
02 1.06
03 1.06
05 1.06
04 1.06
06 1.06
07 1.06
08 1.06
09 1.06
11 1.06
10 1.06
12 1.06
13 1.06
14 1.06
15 1.06
17 1.06
16 1.06
18 1.06
19 1.06
20 1.06
21 1.06
23 1.06
22 1.06
00 2.06
01 2.06
02 2.06
03 2.06
05 2.06
04 2.06
06 2.06
07 2.06
08 2.06
09 2.06
11 2.06
10 2.06
12 2.06
13 2.06
14 2.06
15 2.06
17 2.06
16 2.06
18 2.06
19 2.06
20 2.06
21 2.06
23 2.06
22 2.06
00 3.06
01 3.06
02 3.06
03 3.06
05 3.06
04 3.06
06 3.06
07 3.06
08 3.06
09 3.06
11 3.06
10 3.06
12 3.06
13 3.06
14 3.06
15 3.06
17 3.06
16 3.06
18 3.06
19 3.06
20 3.06
21 3.06
23 3.06
22 3.06
00 4.06
01 4.06
Ветер
(напр.,м/с)
Видим. Явления Облачность Т
(С)
Тd
(С)
f
(%)
Тe
(С)
Тes
(С)
Комфортность P
(гПа)
Po
(гПа)
Тmin
(С)
Tmax
(С)
R
(мм)
R24
(мм)
S
(см)
С 8-11
{11}
60 км 10/0
[Ac As]
+17.2 +8.9 58 +16 +16 тепло 1029.5 1017.0
СВ 7-10
{12}
60 км 10/0
[Ac As]
+16.8 +8.8 59 +16 +16 тепло 1029.6 1017.1
С 8-12
{12}
65 км 9/0
[Ac cast]
+16.1 +7.3 56 +15 +15 тепло 1029.8 1017.3
С 8-12
{12}
65 км 4/0
[Ac cast]
+14.0 +6.5 61 +12 +12 тепло 1030.8 1018.2
С 8-11
{12}
65 км 8/6 1500 м
[Sc Ac cast]
+15.0 +7.1 59 +13 +13 тепло 1030.3 1017.7
С 8 60 км 3/1 600 м
[Cu hum Ac trans]
+14.4 +6.7 60 +12 +13 тепло 1031.0 1018.4 +12.4 +23.5
СВ 7-10
{12}
60 км 1/0
[Ci fib]
+14.9 +7.0 59 +13 +15 тепло 1031.3 1018.7
СВ 6-9
{10}
50 км 1/1 960 м
[Cu hum]
+15.8 +7.2 57 +15 +18 тепло 1031.3 1018.7
С 6 50 км 1/1 1110 м
[Cu hum Ci fib]
+16.9 +6.6 51 +16 +21 тепло 1031.3 1018.8
С 6-11
{11}
65 км 1/1 1500 м
[Cu hum Ci fib]
+20.4 +2.7 31 +21 +27 комфорт 1030.3 1017.9
С 6-10
{11}
50 км 1/1 1500 м
[Cu hum Ci sp]
+18.1 +3.5 38 +18 +23 тепло 1030.8 1018.3
СВ 6-11
{12}
>70 км 1/1 1500 м
[Cu hum Ci sp]
+20.7 +1.3 28 +21 +27 комфорт 1029.9 1017.6
СВ 7-12
{12}
>70 км 1/1 1500 м
[Cu hum Ci sp]
+20.4 -1.9 22 +20 +24 тепло 1029.6 1017.2
С 8-12
{14}
>70 км пыльные вихри 1/1 1500 м
[Cu hum Ci sp]
+21.6 -3.2 19 +21 +23 комфорт 1029.0 1016.7
СВ 7-11
{14}
>70 км 1/1 1500 м
[Cu hum Ci sp]
+21.5 -1.8 21 +21 +23 комфорт 1028.4 1016.1
СВ 7-10
{11}
>70 км 1/1 1500 м
[Cu hum Ci sp]
+21.5 -2.7 20 +21 +21 комфорт 1027.8 1015.5
СВ 6-9
{12}
>70 км 1/1 1500 м
[Cu hum Ci fib]
+21.5 -2.4 20 +21 +23 комфорт 1028.1 1015.8
СВ 8 >70 км 1/1 1500 м
[Sc diur, vesp Ci sp]
+20.2 -1.9 22 +20 +20 тепло 1027.7 1015.4 +13.9 +22.4
СВ 6-9
{11}
>70 км 1/1 1500 м
[Sc Ci fib]
+19.2 +0.4 28 +19 +19 тепло 1027.9 1015.5
С 6-7
{9}
70 км 1/0
[Ci fib]
+17.8 +1.5 33 +17 +17 тепло 1028.3 1015.9
С 5-7
{11}
70 км ясно +16.7 +2.2 38 +16 +16 тепло 1028.7 1016.2
СВ 4-5
{6}
60 км ясно +14.3 +3.1 47 +13 +13 тепло 1028.9 1016.3
С 4-6
{6}
60 км ясно +15.2 +2.8 43 +14 +14 тепло 1028.9 1016.3
СВ 3-5
{11}
60 км ясно +13.4 +3.1 50 +12 +12 тепло 1028.7 1016.1
С 3-4
{4}
50 км ясно +12.3 +3.3 54 +11 +11 тепло 1028.8 1016.1
СВ 2-3
{4}
60 км ясно +11.8 +3.1 55 +11 +11 тепло 1028.6 1015.9
В 3-3
{4}
60 км 1/0
[Ci fib]
+9.4 +3.3 66 +7 +7 по сезону 1028.5 1015.7
СВ 4-6
{7}
60 км 1/0
[Ci fib]
+12.4 +3.2 53 +11 +12 тепло 1028.5 1015.8
СВ 4-5
{5}
60 км 1/0
[Ci fib]
+10.7 +3.3 60 +9 +9 тепло 1028.6 1015.8
СВ 5 60 км 3/0
[Ci fib]
+14.3 +3.4 48 +13 +14 тепло 1028.4 1015.8 +9.1 +20.2
СВ 4-6
{7}
60 км 1/0
[Ci fib]
+15.4 +3.7 46 +15 +19 тепло 1028.3 1015.8
СВ 4-7
{7}
60 км 1/1 1440 м
[Cu hum Ci fib]
+16.8 +3.9 42 +16 +22 тепло 1028.2 1015.7
СВ 4 65 км 1/1 1500 м
[Cu hum Ci fib]
+18.4 +3.6 37 +18 +26 тепло 1027.7 1015.3
СВ 5-8
{10}
65 км 4/4 1500 м
[Cu med, cong Ci fib]
+19.1 +2.1 32 +19 +25 тепло 1026.7 1014.3
СВ 4-7
{9}
65 км 4/4 1500 м
[Cu med, cong Ci fib]
+19.2 +0.9 29 +19 +26 тепло 1027.4 1015.0
СВ 4-8
{11}
60 км 4/4 1500 м
[Cu hum Ci fib]
+20.2 +1.3 28 +20 +27 тепло 1025.9 1013.6
СВ 5-10
{11}
60 км 4/4 2000 м
[Cu hum]
+22.2 +1.7 26 +22 +27 комфорт 1025.2 1013.0
В 7-10
{11}
60 км 4/4 2000 м
[Cu hum]
+22.3 +1.3 25 +22 +24 комфорт 1024.5 1012.3
СВ 4-8
{11}
60 км 4/4 2000 м
[Cu hum]
+21.9 +0.1 23 +21 +25 комфорт 1023.9 1011.7
СВ 5-8
{9}
65 км 3/3 2000 м
[Cu hum]
+22.0 +1.3 25 +22 +23 комфорт 1023.0 1010.8
В 5-9
{9}
65 км 4/4 2000 м
[Cu hum]
+22.0 +0.3 24 +21 +23 комфорт 1023.4 1011.2
СВ 6 70 км 3/1 2000 м
[Cu hum Ac cuf]
+21.4 +1.3 26 +21 +21 комфорт 1022.7 1010.5 +14.0 +23.2
СВ 5-8
{9}
>70 км 3/0
[Ac cuf]
+20.6 +2.3 30 +21 +21 комфорт 1022.8 1010.5
СВ 5-7
{7}
>70 км 1/0
[Ac trans]
+18.4 +2.9 36 +18 +18 тепло 1023.3 1010.9
СВ 4-6
{9}
>70 км 1/0
[Ac trans]
+17.0 +3.6 41 +17 +17 тепло 1023.4 1011.0
С 4-5
{6}
>70 км 1/0
[Ac trans]
+14.7 +3.1 46 +14 +14 тепло 1024.0 1011.5
С 4-5
{7}
>70 км 1/0
[Ac trans]
+15.8 +3.5 44 +15 +15 тепло 1023.8 1011.3
С 4-5
{9}
>70 км ясно +13.6 +2.9 48 +12 +12 по сезону 1024.1 1011.5
С 5-6
{6}
70 км ясно +13.2 +2.8 49 +11 +11 по сезону 1024.0 1011.4
С 5-6
{6}
70 км 3/0
[Ac As]
+13.0 +2.7 50 +11 +11 по сезону 1023.9 1011.3
С 5-6
{7}
70 км 3/0
[Ac trans Ci fib]
+12.5 +2.7 51 +11 +11 по сезону 1023.8 1011.2
СВ 4-6
{6}
60 км 6/1 1200 м
[Cu hum Ac trans Ci fib]
+14.0 +2.7 46 +13 +13 по сезону 1023.9 1011.3
С 3-5
{6}
70 км 3/0
[Ac trans Ci fib]
+12.1 +2.8 53 +11 +11 по сезону 1023.9 1011.3
СВ 4 60 км 3/1 1000 м
[Cu hum Ac lent Ci fib]
+14.8 +2.4 43 +14 +16 по сезону 1024.0 1011.5 +11.9 +21.4
СВ 5-7
{7}
60 км 3/0
[Ac trans Ci sp]
+16.9 +3.7 41 +16 +19 тепло 1023.8 1011.4
СВ 7-9
{10}
60 км 3/1 1500 м
[Cu hum Ac As Ci sp]
+19.0 +4.0 37 +19 +21 тепло 1023.4 1011.1
СВ 9 60 км 4/1 1500 м
[Cu med, cong Ac trans Ci sp]
+20.2 -1.8 23 +19 +20 тепло 1023.2 1010.9
СВ 9-12
{13}
65 км 4/1 2000 м
[Cu hum Ac lent Ci sp]
+20.6 +0.8 27 +20 +22 тепло 1022.6 1010.3
СВ 9-13
{14}
60 км 4/1 2000 м
[Cu hum Ac lent Ci sp]
+19.7 -2.2 23 +19 +20 тепло 1022.9 1010.6
СВ 8 >70 км 4/1 2000 м
[Cu hum Ci sp]
+20.4 +1.4 28 +20 +23 тепло 1022.1 1009.8
В 11-14
{15}
>70 км пыльные вихри 5/1 2000 м
[Cu hum Ac lent Ci sp]
+21.8 +1.4 26 +21 +22 комфорт 1021.5 1009.3
СВ 8-13
{14}
>70 км 6/1 2000 м
[Cu hum Ac lent Ci sp]
+21.3 +1.6 27 +21 +23 комфорт 1021.3 1009.1
СВ 7-10
{15}
>70 км 5/1 2000 м
[Cu hum Ac lent Ci sp]
+21.7 +1.1 25 +21 +23 комфорт 1021.1 1008.9
СВ 7-10
{12}
>70 км 4/3 2000 м
[Sc Ci sp]
+21.1 +0.6 26 +21 +21 комфорт 1020.5 1008.3
СВ 7-11
{14}
>70 км 4/3 2000 м
[Sc diur, vesp Ac lent Ci sp]
+21.2 -0.5 23 +21 +22 комфорт 1020.9 1008.7
СВ 9 >70 км 5/0
[Ac trans Ci sp]
+19.8 +1.0 28 +19 +19 по сезону 1021.0 1008.7 +14.6 +22.2
В 8-9
{12}
>70 км 4/0
[Ac trans Ci fib]
+18.6 +1.6 32 +18 +18 по сезону 1021.2 1008.9
В 6-8
{9}
>70 км 5/0
[Ac trans Ci fib]
+17.6 +2.2 36 +17 +17 прохладно 1021.8 1009.4
В 5-6
{12}
>70 км 5/0
[Ac trans Ci fib]
+17.1 +2.6 38 +16 +16 по сезону 1021.9 1009.5
СВ 4-4
{5}
70 км 4/3 2000 м
[Sc Ac trans]
+15.2 +3.2 45 +14 +14 по сезону 1022.1 1009.6
СВ 3-4
{6}
70 км 4/0
[Ac As]
+15.5 +2.8 42 +15 +15 по сезону 1022.1 1009.6
СВ 3-4
{12}
70 км 9/9 2000 м
[Sc]
+15.0 +3.4 46 +14 +14 тепло 1022.0 1009.5
С 3-4
{5}
70 км 9/9 2000 м
[Sc]
+15.1 +3.3 45 +15 +15 тепло 1021.6 1009.1
С 4-5
{6}
70 км 5/5 2000 м
[Sc]
+14.2 +4.0 50 +13 +13 тепло 1021.5 1009.0
С 5-7
{7}
70 км 4/3 2000 м
[Sc Ci sp]
+13.3 +4.5 55 +12 +12 по сезону 1021.4 1008.9
СВ 5-8
{8}
60 км 8/1 1500 м
[Sc Ac lent Cs]
+12.4 +4.5 59 +10 +11 по сезону 1021.5 1008.9
С 4-6
{7}
70 км 4/1 2000 м
[Sc Ci sp]
+12.1 +4.6 60 +10 +10 по сезону 1021.6 1009.0
СВ 5 60 км 8/1 1500 м
[Sc Cs]
+13.5 +4.5 54 +12 +13 по сезону 1021.8 1009.3 +11.9 +19.8
СВ 4-5
{7}
60 км 8/1 1140 м
[Cu Sc Cs]
+14.9 +4.2 49 +14 +17 тепло 1021.8 1009.3
СВ 6-9
{9}
60 км 9/1 1350 м
[Cu Sc Cs]
+16.6 +3.8 42 +16 +19 тепло 1021.8 1009.4
СВ 5 65 км 8/4 1380 м
[Cu Sc Cs]
+17.3 +3.3 39 +17 +20 по сезону 1021.7 1009.3
СВ 4-9
{9}
70 км 6/4 1500 м
[Cu hum Cs]
+19.2 +3.2 35 +19 +26 тепло 1021.3 1009.0
СВ 4-9
{9}
65 км 8/4 1500 м
[Cu hum Cs]
+18.9 +3.3 35 +19 +25 тепло 1021.5 1009.2
С 5 70 км 6/4 1500 м
[Cu hum Ci]
+19.7 +1.5 30 +20 +25 по сезону 1021.0 1008.7
СВ 7-9
{10}
70 км 8/4 1500 м
[Cu hum Ci sp]
+19.8 +2.7 32 +20 +22 по сезону 1020.6 1008.3
В 4-9
{11}
70 км 8/4 1500 м
[Cu hum Ac trans Ci sp]
+21.7 +4.1 32 +22 +25 комфорт 1020.4 1008.2
В 6-9
{11}
>70 км 9/1 1500 м
[Cu hum Ac trans Cs]
+21.5 +4.1 32 +22 +24 комфорт 1020.3 1008.1
СВ 5-8
{9}
>70 км 6/1 1500 м
[Cu hum Ac trans Ci fib]
+21.3 +4.0 32 +22 +23 комфорт 1020.3 1008.1
СВ 7-11
{11}
>70 км 8/1 1500 м
[Cu hum Ac lent Cs]
+21.2 +4.2 33 +21 +22 комфорт 1020.4 1008.2
СВ 6 >70 км 6/1 2000 м
[Sc diur, vesp Ac trans Ci fib]
+20.5 +2.9 31 +21 +21 комфорт 1020.4 1008.2 +13.3 +22.8
СВ 5-8
{9}
70 км 6/1 2000 м
[Sc Ac lent Ci sp]
+19.6 +4.0 36 +20 +20 по сезону 1020.8 1008.5
СВ 6-8
{9}
70 км 4/0
[Ac lent Ci fib]
+18.6 +4.4 39 +18 +18 по сезону 1021.4 1009.1
СВ 5-7
{9}
70 км 3/0
[Ci fib]
+17.5 +4.9 43 +17 +17 тепло 1021.8 1009.4
В 2-3
{5}
70 км 1/0
[Ci fib]
+14.1 +5.9 58 +14 +14 по сезону 1022.2 1009.7
СВ 4-5
{7}
70 км 1/0
[Ci fib]
+15.5 +5.3 51 +15 +15 по сезону 1022.1 1009.6
В 1-2
{9}
70 км 3/0
[Ac trans]
+14.3 +5.9 57 +15 +15 тепло 1022.1 1009.6
В 2-3
{3}
70 км 1/0
[Ac trans]
+11.6 +5.8 68 +11 +11 по сезону 1022.2 1009.6
СВ 2-3
{3}
70 км ясно +11.3 +5.8 69 +10 +10 по сезону 1022.0 1009.4
В 2-3
{4}
70 км 1/0
[Ci fib]
+12.6 +5.6 62 +12 +12 по сезону 1021.8 1009.2
В 3-4
{4}
>70 км 1/0
[Ac lent Ci fib]
+13.3 +6.3 63 +12 +13 по сезону 1022.0 1009.5
В 2-3
{3}
70 км 1/0
[Ci fib]
+11.3 +5.8 69 +10 +10 по сезону 1022.0 1009.4
СВ 5 >70 км 1/0
[Ac lent Ci fib]
+15.6 +6.3 54 +15 +16 тепло 1022.2 1009.7 +10.9 +20.5
СВ 3-5
{7}
>70 км 1/0
[Ci fib]
+17.8 +6.9 49 +18 +23 тепло 1022.2 1009.8
СВ 5-7
{7}
>70 км 1/0
[Ci fib]
+19.1 +6.6 44 +19 +24 тепло 1022.0 1009.7
СВ 4 >70 км 1/1 1500 м
[Cu hum]
+21.1 +7.1 40 +22 +30 комфорт 1021.8 1009.6
СВ 6-9
{9}
>70 км 1/1 1500 м
[Cu hum]
+23.6 +6.6 33 +24 +30 комфорт 1020.7 1008.6
СВ 4-6
{8}
>70 км 1/1 1500 м
[Cu hum]
+22.4 +6.6 36 +23 +33 комфорт 1021.3 1009.1
В 5-10
{10}
>70 км 1/1 2000 м
[Cu hum]
+24.7 +6.2 30 +25 +33 комфорт 1020.3 1008.2
СВ 6-9
{10}
>70 км 1/1 2000 м
[Cu hum]
+25.9 +6.0 28 +25 +31 комфорт 1019.7 1007.7
СВ 3-8
{11}
>70 км 1/1 2000 м
[Cu hum]
+25.5 +5.3 27 +25 +35 комфорт 1019.4 1007.4
С 3-6
{11}
>70 км 1/1 2000 м
[Cu hum]
+26.1 +5.4 27 +25 +32 комфорт 1018.8 1006.8
СВ 3-5
{8}
>70 км 1/0
[Ac cuf Ci fib]
+25.7 +5.8 28 +25 +28 комфорт 1018.3 1006.3
В 3-7
{8}
>70 км 1/1 2000 м
[Cu hum]
+26.4 +5.7 27 +26 +30 жарко 1018.5 1006.5
С 5 >70 км 1/0
[Ac cuf Ci fib]
+25.5 +5.9 28 +25 +26 комфорт 1018.1 1006.1 +15.7 +26.9
С 5-8
{8}
60 км 3/0
[Ac trans Ci sp]
+24.6 +6.9 32 +25 +25 комфорт 1018.2 1006.2
СВ 4-6
{8}
60 км 3/0
[Ci sp]
+23.1 +6.2 34 +24 +24 комфорт 1018.6 1006.5
СВ 5-7
{8}
60 км 3/0
[Ci sp]
+21.4 +6.0 37 +22 +22 комфорт 1019.0 1006.8
С 5-7
{7}
60 км 4/0
[Ci sp]
+18.6 +6.3 45 +19 +19 тепло 1019.5 1007.2
С 4-6
{7}
60 км 4/0
[Ci sp]
+19.6 +6.2 42 +20 +20 тепло 1019.4 1007.1
С 5-8
{8}
60 км 4/0
[Ci sp]
+17.7 +6.5 48 +17 +17 тепло 1019.3 1007.0
С 4-6
{7}
60 км 4/0
[Ci sp]
+17.5 +6.7 49 +17 +17 тепло 1019.1 1006.8
С 4-6
{6}
60 км 4/0
[Ci sp]
+16.7 +6.8 52 +16 +16 тепло 1018.9 1006.5
СВ 2-4
{7}
60 км 3/0
[Ci fib]
+15.8 +6.9 55 +16 +16 тепло 1018.9 1006.5
СВ 4-6
{6}
60 км 4/0
[Ci fib]
+16.7 +6.6 51 +16 +17 тепло 1019.0 1006.6
СВ 3-4
{5}
55 км 3/0
[Ci fib]
+14.7 +6.8 59 +14 +14 тепло 1018.9 1006.5
СВ 4 70 км 4/0
[Ci fib]
+17.8 +6.5 47 +18 +20 тепло 1019.0 1006.7 +14.5 +25.7
СВ 3-5
{7}
70 км 4/0
[Ci fib]
+19.6 +6.4 42 +21 +25 комфорт 1019.0 1006.8
В 4-5
{7}
70 км 5/0
[Ci fib]
+21.6 +6.6 38 +22 +28 комфорт 1018.7 1006.5
В 3 70 км 5/0
[Ci fib]
+23.0 +6.6 35 +24 +34 комфорт 1018.3 1006.2
В 3-7
{7}
70 км 5/1 1500 м
[Cu hum Ci sp]
+25.2 +5.9 29 +25 +37 комфорт 1016.8 1004.8
В 2-6
{9}
70 км 4/1 1500 м
[Cu hum Ci fib]
+24.6 +6.2 31 +25 +38 комфорт 1017.7 1005.7
ЮВ 2 70 км 9/1 2000 м
[Cu hum Cs]
+27.7 +5.7 25 +27 +40 жарко 1016.1 1004.2
В 3-8
{8}
70 км 9/1 2000 м
[Cu hum Cs]
+27.1 +5.4 25 +26 +36 жарко 1015.3 1003.4
В 2-5
{6}
>70 км 9/1 2000 м
[Cu hum Cs]
+27.1 +4.9 24 +26 +36 жарко 1014.5 1002.6
СВ 2-6
{8}
>70 км 9/1 2000 м
[Cu hum Cs]
+27.5 +4.6 23 +26 +33 жарко 1013.7 1001.8
ЮЗ 2-4
{6}
>70 км 9/1 2000 м
[Cu hum Cs]
+27.3 +5.3 25 +26 +29 жарко 1012.3 1000.4
В 2-5
{7}
>70 км 9/1 2000 м
[Cu hum Cs]
+27.6 +5.6 25 +27 +31 жарко 1013.0 1001.1
Ю 2 >70 км 8/0
[Cs]
+26.4 +7.7 31 +26 +27 жарко 1011.8 999.9 +17.6 +28.6
З 2-2
{3}
>70 км 9/0
[Cs]
+22.8 +8.3 39 +24 +24 комфорт 1011.6 999.6
Ю 1-2
{2}
>70 км 9/0
[Cs]
+19.9 +7.8 46 +22 +22 комфорт 1011.6 999.5
ЮЗ 1-2
{3}
70 км 9/0
[Cs]
+18.0 +8.5 54 +19 +19 тепло 1011.4 999.2
ЮЗ 1-1
{1}
70 км 9/0
[Cs]
+15.9 +8.5 61 +17 +17 тепло 1010.7 998.4
З 1-2
{2}
70 км 9/0
[Cs]
+16.6 +9.2 62 +18 +18 тепло 1011.1 998.8
СВ 1 60 км 9/1 1500 м
[Sc Cs]
+14.8 +8.7 67 +15 +15 тепло 1010.1 997.8
ЮЗ 1-2
{2}
60 км 9/0
[Ac trans Cs]
+13.4 +8.6 73 +14 +14 тепло 1009.7 997.3
СВ 1-2
{2}
60 км 9/0
[Ac trans Cs]
+12.9 +8.9 77 +13 +13 тепло 1009.2 996.8
В 2-2
{2}
60 км 8/0
[Ac cast Ci fib]
+12.4 +8.5 77 +12 +12 по сезону 1008.5 996.1
В 2-3
{4}
55 км 8/1 900 м
[Cu med, cong Ac cast Ci sp]
+13.7 +9.5 76 +13 +14 по сезону 1007.9 995.6
В 2-3
{3}
60 км 8/0
[Ac cast Cs]
+11.8 +8.6 81 +11 +11 по сезону 1008.3 995.9
С 1 50 км 8/1 600 м
[Cu med, cong Ac trans Ci sp]
+17.1 +8.9 58 +18 +20 тепло 1007.5 995.3 +11.7 +26.4
З 1-2
{5}
50 км 8/1 900 м
[Cu med, cong Ac trans Ci sp]
+19.9 +8.4 47 +22 +26 комфорт 1007.1 995.0
В 1-2
{2}
50 км 6/1 1440 м
[Cu med, cong Ac trans Ci sp]
+21.8 +8.2 42 +23 +31 комфорт 1006.5 994.5
СВ 2 50 км 8/1 1500 м
[Cb cap Ac trans Ci sp]
+23.2 +8.7 40 +25 +32 комфорт 1006.0 994.1
ЮЗ 2-4
{5}
50 км 5/1 1500 м
[Cu med, cong Ac trans Ci sp]
+25.6 +8.7 34 +26 +38 жарко 1004.4 992.6
ЮВ 2-4
{5}
50 км 6/1 1500 м
[Cu med, cong Ac trans Ci sp]
+24.5 +9.0 37 +25 +36 комфорт 1005.3 993.4
ЮВ 2 50 км 6/3 1500 м
[Cb cap Ac cast Ci ing]
+27.4 +8.1 30 +27 +37 жарко 1002.9 991.2
З 2-3
{5}
50 км гроза без осадков туман 9/5 1500 м
[Cb cap Ac cuf Ci ing]
+26.8 +6.5 27 +26 +31 жарко 1002.6 990.8
СЗ 4-6
{9}
50 км в посл. час гроза {ливн. осадки} туман 9/4 1500 м
[Cb cap Ac cuf Ci ing]
+26.1 +4.4 25 +25 +28 комфорт 1001.8 990.0
СЗ 5 50 км в посл. час ливневой дождь {гроза} 9/3 1500 м
[Cb cap Ac cuf Ci ing]
+23.0 +9.0 41 +24 +26 комфорт 1001.7 989.8 0.0
ЮЗ 5-8
{8}
60 км 9/1 1500 м
[Cb calv Ac cast Ci fib]
+24.5 +7.6 34 +25 +26 комфорт 1001.3 989.5
СЗ 4-5
{10}
50 км 8/1 1500 м
[Cb cap Ac trans Ci ing]
+26.3 +5.2 26 +26 +28 жарко 1001.0 989.2
ЮЗ 3 60 км в посл. час ливневой дождь {гроза} 9/4 1440 м
[Cb calv Ac cast]
+22.3 +8.0 40 +23 +24 комфорт 1001.2 989.3 +17.1 +28.3 0.0
СЗ 3-5
{7}
60 км в посл. час ливневой дождь 9/4 1380 м
[Cu med, cong Ac cast]
+21.4 +9.1 45 +23 +23 комфорт 1000.8 988.9
Ю 4-6
{6}
60 км в посл. час ливневой дождь 9/4 1300 м
[Cu med, cong Ac cast]
+19.0 +11.5 62 +20 +20 по сезону 1001.1 989.1
ЮЗ 2-3
{7}
60 км {ливн. осадки} 9/1 1500 м
[Cu med, cong Ac As]
+17.6 +12.0 70 +18 +18 тепло 1000.8 988.7 0.0
Ю 2-2
{3}
60 км 9/0
[Ac As]
+15.8 +12.0 78 +16 +16 по сезону 999.7 987.6
Ю 1-1
{2}
60 км 9/0
[Ac As Ci fib]
+15.7 +11.8 78 +16 +16 по сезону 1000.2 988.0
З 2 60 км {ливн. осадки} 9/0
[Ac As]
+16.6 +12.5 77 +17 +17 тепло 999.2 987.1
Ю 2-2
{2}
60 км 9/0
[Ac As]
+14.8 +12.1 84 +14 +14 тепло 998.8 986.6
Местоположение метеостанции Франкфурт-на-Майне (Германия): широта 50.05 долгота 8.60 высота над уровнем моря 112 м.
В архиве по умолчанию представлена погода во Франкфурте-на-Майне за последнюю неделю. Архивные данные за месяц целиком и за предыдущие месяцы, начиная с января 2011 года, Вы можете получить, выбрав интересующий диапазон дат из раскрывающегося списка и нажав кнопку "Найти!".
*Определитесь, кто Вы:
Внимание! Время в таблицах - всемирное. Для получения местного времени необходимо прибавить поправку, которая равна 1 ч.
Смотрите также архив погоды в соседних городах и на ближайших метеорологических станциях:
Партнеры нашего сайта:      
Пояснения к столбцам:
  • Ветер - указаны скорость ветра в м/с - средняя за 10 мин, порывы в срок и между сроками (в фигурных скобках) и направление, откуда дует ветер: С - северный,
  • СВ - северо-восточный, В - восточный, ЮВ - юго-восточный, Ю - южный, ЮЗ - юго-западный, З - западный, СЗ - северо-западный.
  • Видимость - горизонтальная дальность видимости в метрах или километрах. При видимости от 1 до 10 км при отсутствии осадков обычно наблюдается дымка, при ухудшении видимости до 1 км и менее - туман. В сухую погоду видимость может ухудшаться дымом, пылью или мглою.
  • Явления - указаны атмосферные явления, наблюдавшиеся в срок или в последний час перед сроком; фигурными скобками обозначены явления, наблюдавшиеся между сроками (за 1-3 часа до срока); квадратными скобками обозначены град или гололедные отложения с указанием их диаметра в мм.
  • Облачность - указаны через наклонную черту общая и нижняя облачность в баллах и высота нижней границы облаков в метрах; квадратными скобками обозначены формы облаков: Ci - перистые, Cs - перисто-слоистые, Cc - перисто-кучевые, Ac - высококучевые, As - высокослоистые, Sc - слоисто-кучевые, Ns - слоисто-дождевые, Cu - кучевые, Cb - кучево-дождевые. Подробнее классификацию облаков см. в Атласе облаков (PDF).
  • T - Температура воздуха - температура, измеренная на высоте 2 м над землей.
  • Td - Температура точки росы - температура, при понижении до которой содержащийся в воздухе водяной пар достигнет насыщения.
  • f - Относительная влажность воздуха - влажноcть воздуха, измеренная на высоте 2 м над землей.
  • Te - Эффективная температура - температура, которую ощущает одетый по сезону человек в тени. Характеристика душности погоды. При расчете учитывается влияние влажности воздуха и скорости ветра на теплоощущения человека.
  • Tes - Эффективная температура на солнце - температура, которую ощущает человек, с поправкой на солнечный нагрев. Характеристика знойности погоды. Зависит от высоты солнца над горизонтом, облачности и скорости ветра. Ночью, в пасмурную погоду, а также при ветре 12 м/с и более поправка равна нулю.
  • P - Атмосферное давление - приведенное к уровню моря атмосферное давление.
  • Po - Атмосферное давление - измеренное на уровне метеостанции атмосферное давление.
  • Tmin - Минимальная температура - минимум температуры воздуха на высоте 2 м над землей.
  • Tmax - Максимальная температура - максимум температуры воздуха на высоте 2 м над землей.
  • R - Количество осадков - Количество выпавших осадков за период времени, мм. При наведении курсора мыши на число - период времени, за который выпало указанное количество осадков.
  • R24 - Количество осадков - Количество выпавших осадков за 24 часа, мм.
  • S - Снежный покров - Высота снежного покрова, см. При наведении курсора мыши на число - состояние снежного покрова и степень покрытия местности в баллах.